Location: Nians�bougou
(13.2321°N, 4.9818°W)
Time: 09:01:03
(UTC+00:00)

CZ-3 R/B - Pass Details

Date: 18 February 2020
Orbit: 352 x 10262 km, 28.4° (Epoch: 08 April)

Event Time Altitude Azimuth Distance (km) Brightness Sun altitude
Exits shadow 04:40:55 33° 298° (WNW) 6,646 5.2 -29.9°
Maximum altitude 04:56:39 88° 27° (NNE) 2,519 3.4 -26.1°
Drops below altitude 10° 05:05:04 10° 117° (ESE) 3,231 5.2 -24.0°
Sets 05:06:48 0° 117° (ESE) 3,791 5.8 -23.6°
